San Antonio, TX

8:50 AM CST on February 08, 2016 (GMT -0600)
Stinson Municipal

Weather History for KSSF - February, 2012

Change the Weather History Date:

Thursday, February 16, 2012

  Actual Average Record
Temperature  
Mean Temperature 59 °F -  
Max Temperature 63 °F 66 °F 84 °F (2006)
Min Temperature 55 °F 46 °F 24 °F (2007)
Degree Days  
Heating Degree Days 6    
Growing Degree Days 9 (Base 50)    
Moisture  
Dew Point 43 °F    
Average Humidity 55    
Maximum Humidity 77    
Minimum Humidity 41    
Precipitation  
Precipitation 0.00 in - - ()
Sea Level Pressure  
Sea Level Pressure 30.09 in    
Wind  
Wind Speed 8 mph (NE)    
Max Wind Speed 16 mph    
Max Gust Speed 22 mph    
Visibility 10 miles    
Events Rain    
Averages and records for this station are not official NWS values.
T = Trace of Precipitation, MM = Missing Value Source: NWS Daily Summary

Daily Weather History Graph

Daily Weather History Graph

Search for Another Location

Airport or City:

Trip Planner

Search our weather history database for the weather conditions in past years. The results will help you decide how hot, cold, wet, or windy it might be!

Date:

Astronomy

Feb. 16, 2012 Rise Set
Actual Time 7:12 AM CST 6:23 PM CST
Civil Twilight 6:48 AM CST 6:48 PM CST
Nautical Twilight 6:20 AM CST 7:16 PM CST
Astronomical Twilight 5:52 AM CST 7:43 PM CST
Moon 2:54 AM CST (2/16) 1:31 PM CST (2/16)
Length of Visible Light 11h 59m
Length of Day
11h 11m
Waning Crescent, 28% of the Moon is Illuminated
Feb 16
Waning Crescent
Feb 21
New
Feb 29
First Quarter
Mar 8
Full
Mar 14
Last Quarter

Hourly Weather History & Observations

Time (CST) Temp. Dew Point Humidity Pressure Visibility Wind Dir Wind Speed Gust Speed Precip Events Conditions
12:53 AM 61.0 °F 45.0 °F 56% 30.03 in 10.0 mi NNE 6.9 mph - N/A   Clear
1:53 AM 62.1 °F 37.9 °F 41% 30.04 in 10.0 mi North 4.6 mph - N/A   Clear
2:53 AM 61.0 °F 37.9 °F 42% 30.04 in 10.0 mi NNE 3.5 mph - N/A   Clear
3:53 AM 60.1 °F 39.0 °F 46% 30.05 in 10.0 mi NNE 4.6 mph - N/A   Clear
4:53 AM 59.0 °F 39.0 °F 48% 30.07 in 10.0 mi NNE 4.6 mph - N/A   Clear
5:53 AM 59.0 °F 37.9 °F 46% 30.09 in 10.0 mi North 5.8 mph - N/A   Clear
6:53 AM 57.0 °F 36.0 °F 45% 30.10 in 10.0 mi North 8.1 mph - N/A   Clear
7:53 AM 55.9 °F 39.0 °F 53% 30.15 in 10.0 mi NNE 5.8 mph - 0.00 in   Mostly Cloudy
8:53 AM 57.0 °F 39.0 °F 51% 30.15 in 10.0 mi NNE 16.1 mph 21.9 mph N/A   Mostly Cloudy
9:53 AM 57.9 °F 41.0 °F 53% 30.17 in 10.0 mi NNE 12.7 mph - N/A   Mostly Cloudy
10:53 AM 59.0 °F 41.0 °F 51% 30.18 in 10.0 mi NE 13.8 mph - 0.00 in   Mostly Cloudy
11:53 AM 60.1 °F 42.1 °F 51% 30.17 in 10.0 mi NE 6.9 mph - 0.00 in   Overcast
12:53 PM 62.1 °F 42.1 °F 48% 30.11 in 10.0 mi ENE 11.5 mph - N/A   Mostly Cloudy
1:53 PM 63.0 °F 43.0 °F 48% 30.10 in 10.0 mi ENE 6.9 mph - 0.00 in Rain Light Rain
2:53 PM 63.0 °F 43.0 °F 48% 30.07 in 10.0 mi ENE 10.4 mph - 0.00 in   Mostly Cloudy
3:53 PM 63.0 °F 43.0 °F 48% 30.05 in 10.0 mi East 10.4 mph - N/A   Mostly Cloudy
4:53 PM 63.0 °F 45.0 °F 52% 30.04 in 10.0 mi ENE 11.5 mph - N/A   Mostly Cloudy
6:53 PM 60.1 °F 46.0 °F 60% 30.07 in 10.0 mi ENE 6.9 mph - N/A   Overcast
7:53 PM 59.0 °F 46.9 °F 64% 30.09 in 10.0 mi ENE 9.2 mph - N/A   Partly Cloudy
8:53 PM 57.9 °F 48.0 °F 70% 30.09 in 10.0 mi ENE 10.4 mph - N/A   Mostly Cloudy
9:48 PM 55.4 °F 48.2 °F 77% 30.09 in 10.0 mi ENE 11.5 mph - N/A   Overcast
9:53 PM 55.9 °F 48.9 °F 77% 30.10 in 10.0 mi ENE 8.1 mph 16.1 mph N/A   Overcast
10:53 PM 55.9 °F 48.0 °F 75% 30.09 in 9.0 mi ENE 13.8 mph 20.7 mph N/A   Overcast
11:53 PM 55.0 °F 48.0 °F 77% 30.07 in 8.0 mi ENE 11.5 mph 19.6 mph N/A   Overcast